weather.gov     
National Weather Service

Terminal Aerodrome Forecast
NWS Homepage
This page is being discontinued on March 12, 2014.
The same data is available at this site. Please update your bookmarks.
Thank you, and we apologize for the inconvenience.
Please send an email to SR-SRH.Webmaster@noaa.gov with any concerns.


Current Version
Previous Version:    01  02  03  04  05  06  07  08  09  10  11  12  13  14  
[Printable]
632
FTUS41 KGYX 260538
TAFPSM
TAF
KPSM 260538Z 2606/2706 VRB04KT P6SM OVC200
     FM261500 02008KT 6SM -RASN OVC030
     FM261800 02012G22KT 1/2SM SNRA FG OVC005
     FM262200 01016G28KT 1/2SM SN FG OVC004
     FM270200 36018G28KT 2SM -SN BR OVC006=




632
FTUS41 KGYX 260538
TAFPSM
TAF
KPSM 260538Z 2606/2706 VRB04KT P6SM OVC200
     FM261500 02008KT 6SM -RASN OVC030
     FM261800 02012G22KT 1/2SM SNRA FG OVC005
     FM262200 01016G28KT 1/2SM SN FG OVC004
     FM270200 36018G28KT 2SM -SN BR OVC006=


U.S. Dept. of Commerce
NOAA National Weather Service
1325 East West Highway
Silver Spring, MD 20910
E-mail: w-nws.webmaster@noaa.gov
Page last modified: May 16, 2007
NATIONAL WEATHER SERVICE: for Safety, for Work, for Fun - FOR LIFE